Regional Weather Roundup
Issued by NWS Upton, NY

Current Version | Previous Version | Text Only | Print | Product List | Glossary On
Versions: 1 2 3 4 5 6 7 8 9 10 11 12 13 14 15 16 17 18 19 20 21 22 23 24 25 26 27 28 29 30 31 32 33 34 35 36 37 38 39 40 41 42 43 44 45 46 47 48 49 50
000 ASUS41 KOKX 010008 RWROKX REGIONAL WEATHER ROUNDUP NATIONAL WEATHER SERVICE NEW YORK NY 800 PM EDT TUE JUN 30 2015 NOTE: "FAIR" INDICATES FEW OR NO CLOUDS BELOW 12,000 FEET WITH NO SIGNIFICANT WEATHER AND/OR OBSTRUCTIONS TO VISIBILITY. NYZ071-072-176-178-NJZ106-104-010100- NEW YORK CITY METRO AREA CITY SKY/WX TMP DP RH WIND PRES REMARKS CENTRAL PARK MOCLDY 75 65 70 VRB7 29.92R LAGUARDIA APRT MOCLDY 75 64 69 S14 29.88S KENNEDY INTL MOCLDY 73 65 75 SE13G22 29.90R NEWARK/LIBERTY MOCLDY 74 68 81 SE7 29.88R BRNX BOT. GARD N/A 73 64 73 S12 29.90F TETERBORO MOCLDY 79 66 65 SE10G22 29.86S $$ NYZ177-179-078>081-010100- LONG ISLAND NEW YORK CITY SKY/WX TMP DP RH WIND PRES REMARKS FARMINGDALE MOCLDY 73 64 73 S13 29.91S ISLIP CLOUDY 73 62 68 SE12 29.89F SHIRLEY MOCLDY 72 62 71 SE9 29.92F WESTHAMPTON PTCLDY 71 65 81 SE7 29.94F MONTAUK POINT N/A 72 65 78 VRB5 29.95F $$ NYZ052-065-067-010100- HUDSON VALLEY CITY SKY/WX TMP DP RH WIND PRES REMARKS WHITE PLAINS MOCLDY 72 63 73 SE8 29.91R NEWBURGH MOCLDY 73 63 68 S10 29.88S MONTGOMERY CLOUDY 67 66 97 CALM 29.87S FOG POUGHKEEPSIE CLOUDY 75 60 59 SE5 29.86R ALBANY MOCLDY 67 64 90 N6 29.88R $$ NJZ001-105-106-008-010-013-015-019>022-104-010100- NEW JERSEY CITY SKY/WX TMP DP RH WIND PRES REMARKS NEWARK/LIBERTY MOCLDY 74 68 81 SE7 29.88R TETERBORO MOCLDY 79 66 65 SE10G22 29.86S CALDWELL MOCLDY 75 66 73 VRB6 29.87S MORRISTOWN MOCLDY 77 70 78 S9G16 29.87R SOMERVILLE PTCLDY 76 65 68 S9 29.83S SUSSEX CLOUDY 68 65 90 N5 29.85F ANDOVER N/A 73 64 73 VRB7 29.85S TRENTON CLOUDY 75 68 78 S12G20 29.85R MILLVILLE MOCLDY 77 70 79 S9 29.84S ATLANTIC CITY MOCLDY 76 70 82 S12G21 29.86F WRIGHTSTOWN MOCLDY 74 71 92 S5 29.84S TOMS RIVER MOCLDY 75 70 83 S10G17 29.87F BELMAR CLOUDY 73 66 78 SE10G18 29.88S $$ PAZ047>061-062-071-010100- EASTERN PENNSYLVANIA CITY SKY/WX TMP DP RH WIND PRES REMARKS PHILADELPHIA TSTM 75 70 84 VRB3 29.84S ALLENTOWN LGT RAIN 76 64 66 SE5 29.83S SCRANTON CLOUDY 71 63 75 E3 29.83S $$ CTZ002-004>006-009-010-012-RIZ004-006-007-MAZ004-011-015-010100- SOUTHERN NEW ENGLAND IN CT CITY SKY/WX TMP DP RH WIND PRES REMARKS BRADLEY INTL MOCLDY 74 56 53 S15 29.90F HARTFORD PTCLDY 73 58 59 S12G21 29.91S DANBURY MOCLDY 72 59 63 SE8 29.92S WTRBRY/OXFORD MOCLDY 70 55 60 S12 29.94S BRIDGEPORT CLOUDY 73 61 65 SE7 29.92R MERIDEN PTCLDY 74 58 57 S8 29.92R NEW HAVEN CLOUDY 72 61 68 SE5 29.93R CHESTER FAIR 72 61 68 S8 29.95S GROTON PTCLDY 69 64 84 E6 29.94S WILLIMANTIC MOCLDY 73 58 59 S5 29.94S IN RI CITY SKY/WX TMP DP RH WIND PRES REMARKS PROVIDENCE MOCLDY 71 64 78 SE7 29.95S BLOCK ISLAND CLEAR 70 63 78 S7 29.96S WESTERLY PTCLDY 70 65 84 SE8 29.96S IN MA CITY SKY/WX TMP DP RH WIND PRES REMARKS BOSTON MOCLDY 66 61 84 CALM 29.94S WORCESTER PTCLDY 71 55 56 S8 29.97R WESTFIELD MOCLDY 72 58 61 S7 29.92R PROVINCETOWN CLEAR 70 12 11 S7 29.96S NANTUCKET CLEAR 65 58 78 SE6 29.98S $$ ANZ330-335-338-340-345-350-353-355-010100- COASTAL MARINE OBSERVATIONS STATION/POSITION TIME SKY/WX TEMP WIND PRES VSBY WAVE AIR SEA DIR/SP/G HT/PER (UTC) (F) (DEG/KT/KT) (MB) (MI) (FT/S) NY HARB ENTRANCE 2350 70 69 150/ 14/ 17 1011.4 3/ 4 4S FIRE IS 2333 67 N/A 3/ 8 20S FIRE ISLAND 2350 70 67 150/ 14/ 16 1011.9 3/ 9 GREAT SOUTH BAY 2300 71 74 150/ 12/ 16 N/A 23SW MTP 2350 70 67 160/ 8/ 10 1013.4 3/ 8 HUDSON CANYON NOT AVBL KINGS POINT 2300 74 68 190/ 9/ 13 1011.5 CENTRAL LI SOUND NOT AVBL EASTERN LI SOUND NOT AVBL ROBBINS REEF 2300 71 160/ 18/ 21 1010.6 $$ >>>>>>>>>>>>>>>>>>>>>>>>>>>> KEY <<<<<<<<<<<<<<<<<<<<<<<<<<< > < > SKY/WX - SKY CONDITION/PRESENT WEATHER < > TMP - TEMPERATURE IN FAHRENHEIT < > DP - DEWPOINT IN FAHRENHEIT < > RH - RELATIVE HUMIDITY IN PERCENT < > WIND - DIRECTION AND SPEED IN MPH < > PRES - MEAN SEA LEVEL PRESSURE IN INCHES OF HG < > WCI - WIND CHILL INDEX < > VSB - VISIBILITY IN MILES < > HX - HEAT INDEX < > TC - TEMPERATURE IN CELSIUS < > VRB - VARIABLE WIND DIRECTION < > < >>>>>>>>>>>>>>>>>>>>>>>>>>>> KEY <<<<<<<<<<<<<<<<<<<<<<<<<<<

USA.gov is the U.S. government's official web portal to all federal, state and local government web resources and services.